Skip Page Navigation
NASA JPL Caltech
NASA Logo - Jet Propulsion Laboratory + View the NASA Portal
+ Center for Near-Earth Object Studies
JPL Home Earth Solar System Stars & Galaxies Technology
JPL Solar System Dynamics
BODIES ORBITS EPHEMERIDES TOOLS PHYSICAL DATA DISCOVERY FAQ SITE MAP
JPL Small-Body Database Browser
Search: [ help ]  
(2016 LF2)
Classification: Amor [NEO]          SPK-ID: 3753716
Ephemeris | Orbit Diagram | Orbital Elements | Mission Design | Physical Parameters | Close-Approach Data ]

[ show orbit diagram ]
Orbital Elements at Epoch 2457545.5 (2016-Jun-06.0) TDB
Reference: JPL 6 (heliocentric ecliptic J2000)
 Element Value Uncertainty (1-sigma)   Units 
e .6329821439248144 0.0083313  
a 2.799223716329932 0.063949 au
q 1.027365087042225 0.00014932 au
i 32.8752284327465 0.18065 deg
node 74.45316674098484 0.035289 deg
peri 191.5880829622135 0.029024 deg
M 357.1241893597795 0.10833 deg
tp 2457559.165094075552
(2016-Jun-19.66509408)
0.046478 TDB
period 1710.625101109393
4.68
58.62
0.1605
d
yr
n .2104493847111965 0.0072117 deg/d
Q 4.571082345617639 0.10443 au
  Orbit Determination Parameters
   # obs. used (total)      60  
   data-arc span      5 days  
   first obs. used      2016-06-04  
   last obs. used      2016-06-09  
   planetary ephem.      DE431  
   SB-pert. ephem.      SB431-N16  
   condition code      9  
   norm. resid. RMS      .51563  
   source      ORB  
   producer      Otto Matic  
   solution date      2018-Feb-10 07:07:55  

Additional Information
 Earth MOID = .0206342 au 
 Jupiter MOID = .621721 au 
 T_jup = 2.813 
[ show covariance matrix ]

Ephemeris | Orbit Diagram | Orbital Elements | Mission Design | Physical Parameters | Close-Approach Data ]

Physical Parameter Table
Parameter Symbol Value Units Sigma Reference Notes
absolute magnitude H 22.4   n/a MPO381213  
diameter diameter 0.204 km 0.050 urn:nasa:pds:neowise_diameters_albedos::2.0[neos] (http://adsabs.harvard.edu/abs/2017AJ....154..168M)  
geometric albedo albedo 0.046   0.024 urn:nasa:pds:neowise_diameters_albedos::2.0[neos] (http://adsabs.harvard.edu/abs/2017AJ....154..168M)  

[ show close-approach data ]
Ephemeris | Orbit Diagram | Orbital Elements | Mission Design | Physical Parameters | Close-Approach Data ]
ABOUT SSD CREDITS/AWARDS PRIVACY/COPYRIGHT GLOSSARY LINKS
FirstGov 2020-Aug-11 08:12 UT
(server date/time)  
NASA Home Page
Site Manager:   Ryan S. Park
Webmaster  Alan B. Chamberlin